ARSAT 2

Last updated on Thu Nov 21 2024 00:02:43 GMT+0000 (Coordinated Universal Time)

1 40941U 15054B 24325.32618860 -.00000223 00000+0 00000+0 0 9999 2 40941 0.0623 82.2485 0001972 158.4513 215.5713 1.00270645 33562
UTC large
Height (km)
Speed (km/s)
/
Latitude / Longitude
Inclination (degrees)
Orbital Period (minutes)
Azimuth
Elevation
Range (km)
Doppler Factor

Next 0 passes for location: London (51.5072 / 0.1276)

Sorry there are no passes over London.